Location: Sternwarte auf dem Internationalen Platz Vogelsang IP
(50.5721°N, 6.4398°E)
Time: 21:07:53
(UTC+01:00)

Transit 2A Rocket - Pass Details

Date: 15 December 2025
Orbit: 581 x 903 km, 66.7° (Epoch: 12 January)

Event Time Altitude Azimuth Distance (km) Brightness Sun altitude
Rises 11:48:49 0° 283° (WNW) 3,449 8.2 15.6°
Reaches altitude 10° 11:52:02 10° 300° (WNW) 2,549 7.4 15.7°
Maximum altitude 11:56:14 19° 345° (NNW) 1,994 6.7 15.8°
Drops below altitude 10° 12:00:30 10° 30° (NNE) 2,592 7.3 15.9°
Sets 12:03:49 0° 48° (NE) 3,526 8.1 15.9°
